Station BIGM4 - Big Bay, MI Image indicating link to RSS feed of recent meteorological observations for station BIGM4


Conditions at BIGM4 as of
(4:40 am EDT)
0840 GMT on 05/29/2024:
     

Click on the graph icon in the table below to see a time series plot of the last five days of that observation.

5-day plot - Wind Direction Wind Direction (WDIR): NW ( 310 deg true )
5-day plot - Wind Speed Wind Speed (WSPD): 2.9 kts
5-day plot - Wind Gust Wind Gust (GST): 5.1 kts
5-day plot - Atmospheric Pressure Atmospheric Pressure (PRES):30.15 in
5-day plot - Air Temperature Air Temperature (ATMP): 46.4 °F
5-day plot - Wind Chill Wind Chill (CHILL): 45.3 °F
5-day plot - Wind Speed at 10 Meters Wind Speed at 10 meters (WSPD10M): 3.9 kts
5-day plot - Wind Speed at 20 Meters Wind Speed at 20 meters (WSPD20M): 3.9 kts
5-day plot -  Wind Speed, Wind Gust and Atmospheric Pressure Combined plot of Wind Speed, Gust, and Air Pressure
Previous observations
TIME
(EDT)
5-day plot - Wind Direction
WDIR
 
5-day plot - Wind Speed
WSPD
kts
5-day plot - Wind Gust
GST
kts
5-day plot - Wave Height
WVHT
ft
5-day plot - Dominant Wave Period
DPD
sec
5-day plot - Average Wave Period
APD
sec
5-day plot - Mean Wave Direction
MWD
 
5-day plot - Atmospheric Pressure
PRES
in
5-day plot - Pressure Tendency
PTDY
in
5-day plot - Air Temperature
ATMP
°F
5-day plot - Water Temperature
WTMP
°F
5-day plot - Dew Point
DEWP
°F
5-day plot - Salinity
SAL
psu
5-day plot - Visibility
VIS
nmi
5-day plot - Tide (above MLLW)
TIDE
ft
2024-05-29 04:30 am NW 1.9 4.1----30.14- 46.8-----
2024-05-29 04:20 amNNW 2.9 4.1----30.14- 47.5-----
2024-05-29 04:10 am NW 1.0 5.1----30.14- 48.4-----
2024-05-29 04:00 amNNW 1.9 4.1----30.14+0.04 49.1-----
2024-05-29 03:50 am N 2.9 4.1----30.14- 49.6-----
2024-05-29 03:40 amNNW 1.9 4.1----30.13- 50.0-----
2024-05-29 03:30 amNNW 4.1 5.1----30.13- 50.2-----
2024-05-29 03:20 am N 5.1 7.0----30.13- 50.7-----
2024-05-29 03:10 amNNW 2.9 7.0----30.13- 51.1-----
2024-05-29 03:00 amNNW 2.9 8.0----30.13+0.04 51.4-----
2024-05-29 02:50 amNNW 2.9 8.9----30.13- 51.4-----
2024-05-29 02:40 amNNW 6.0 9.9----30.12- 51.8-----
2024-05-29 02:30 amNNW 6.0 12.0----30.12- 52.3-----
2024-05-29 02:20 amNNW 8.0 13.0----30.12- 52.7-----
2024-05-29 02:10 amNNW 8.9 18.1----30.11- 53.1-----
2024-05-29 02:00 amNNW 9.9 15.9----30.11+0.03 53.8-----
2024-05-29 01:50 amNNW 8.0 13.0----30.10- 54.0-----
2024-05-29 01:40 amNNW 8.9 13.0----30.10- 54.1-----
2024-05-29 01:30 amNNW 7.0 11.1----30.10- 54.0-----
2024-05-29 01:20 amNNW 8.0 14.0----30.10- 54.0-----
2024-05-29 01:10 amNNW 7.0 13.0----30.10- 53.8-----
2024-05-29 01:00 am NW 6.0 11.1----30.10+0.03 54.0-----
2024-05-29 12:50 am NW 6.0 12.0----30.10- 54.5-----
2024-05-29 12:40 amNNW 7.0 13.0----30.10- 54.3-----
2024-05-29 12:30 am NW 6.0 11.1----30.09- 54.0-----
2024-05-29 12:20 amWNW 4.1 8.0----30.09- 53.8-----
2024-05-29 12:10 amWNW 2.9 8.9----30.09- 53.6-----
2024-05-29 12:00 amWNW 2.9 9.9----30.09+0.03 53.6-----
2024-05-28 11:50 pmWNW 2.9 8.9----30.09- 53.4-----
2024-05-28 11:40 pmWNW 5.1 8.9----30.09- 53.4-----
2024-05-28 11:30 pm NW 4.1 8.0----30.08- 53.4-----
2024-05-28 11:20 pm NW 6.0 9.9----30.08- 53.2-----
2024-05-28 11:10 pmWNW 4.1 8.0----30.08- 53.2-----
2024-05-28 11:00 pm NW 6.0 9.9----30.08+0.04 53.4-----
2024-05-28 10:50 pmWNW 5.1 8.9----30.08- 53.2-----
2024-05-28 10:40 pmWNW 4.1 8.9----30.08- 53.4-----
2024-05-28 10:30 pmWNW 4.1 8.9----30.07- 53.4-----
2024-05-28 10:20 pm NW 2.9 8.9----30.07- 53.2-----
2024-05-28 10:10 pm NW 4.1 8.0----30.07- 53.2-----
2024-05-28 10:00 pm NW 4.1 8.0----30.07+0.05 53.2-----
2024-05-28 09:50 pmNNW 5.1 11.1----30.06- 53.4-----
2024-05-28 09:40 pmNNW 7.0 12.0----30.06- 53.4-----
2024-05-28 09:30 pmNNW 8.9 12.0----30.06- 53.4-----
2024-05-28 09:20 pm N 8.0 11.1----30.06- 54.0-----
2024-05-28 09:10 pmNNW 6.0 9.9----30.06- 54.3-----
2024-05-28 09:00 pmNNW 7.0 8.9----30.06+0.05 55.2-----
2024-05-28 08:50 pmNNW 5.1 8.9----30.05- 55.2-----
2024-05-28 08:40 pmNNW 5.1 8.9----30.05- 55.0-----
2024-05-28 08:30 pm N 6.0 8.9----30.04- 55.2-----
2024-05-28 08:20 pmNNW 5.1 9.9----30.04- 55.0-----
2024-05-28 08:10 pmNNW 8.0 11.1----30.04- 55.0-----
2024-05-28 08:00 pmNNW 8.0 9.9----30.04+0.04 54.7-----
2024-05-28 07:50 pm N 7.0 11.1----30.04- 54.7-----
2024-05-28 07:40 pm N 7.0 9.9----30.03- 54.1-----
2024-05-28 07:30 pm N 8.0 11.1----30.03- 53.1-----
2024-05-28 07:20 pm N 6.0 8.0----30.03- 53.1-----
2024-05-28 07:10 pmNNE 8.0 11.1----30.03- 53.2-----
2024-05-28 07:00 pmNNE 8.9 11.1----30.02+0.03 53.8-----
2024-05-28 06:50 pmNNE 8.9 11.1----30.02- 55.0-----
2024-05-28 06:40 pm N 7.0 8.9----30.02- 55.6-----
2024-05-28 06:30 pm N 7.0 8.9----30.02- 55.8-----
2024-05-28 06:20 pm N 7.0 8.9----30.02- 56.1-----
2024-05-28 06:10 pm N 7.0 9.9----30.01- 56.3-----
2024-05-28 06:00 pm N 7.0 8.0----30.01+0.03 55.0-----
2024-05-28 05:50 pm N 8.0 8.9----30.01- 54.9-----
2024-05-28 05:40 pm N 8.9 12.0----30.01- 55.6-----
2024-05-28 05:30 pmNNE 11.1 12.0----30.01- 55.2-----
2024-05-28 05:20 pmNNE 11.1 12.0----30.00- 55.9-----
2024-05-28 05:10 pmNNE 9.9 11.1----30.00- 56.8-----
2024-05-28 05:00 pmNNE 8.9 9.9----30.00+0.04 55.8-----
2024-05-28 04:50 pm N 8.9 11.1----30.00- 55.4-----
2024-05-28 04:40 pm N 11.1 13.0----30.00- 55.0-----
2024-05-28 04:30 pmNNE 12.0 13.0----30.00- 55.4-----
2024-05-28 04:20 pmNNE 9.9 12.0----29.99- 55.6-----
2024-05-28 04:10 pmNNE 9.9 9.9----29.99- 54.5-----
2024-05-28 04:00 pmNNE 7.0 9.9----29.99+0.05 54.0-----
2024-05-28 03:50 pmNNE 8.9 11.1----29.99- 53.6-----
2024-05-28 03:40 pmNNE 11.1 12.0----29.99- 53.6-----
2024-05-28 03:30 pmNNE 8.9 13.0----29.99- 54.1-----
2024-05-28 03:20 pmNNE 11.1 12.0----29.98- 55.0-----
2024-05-28 03:10 pm N 8.0 12.0----29.98- 54.5-----
2024-05-28 03:00 pm N 9.9 12.0----29.98+0.05 54.3-----
2024-05-28 02:50 pm N 8.9 13.0----29.97- 54.3-----
2024-05-28 02:40 pmNNE 11.1 13.0----29.97- 55.0-----
2024-05-28 02:30 pm N 8.9 14.0----29.97- 55.4-----
2024-05-28 02:20 pm N 12.0 14.0----29.97- 56.3-----
2024-05-28 02:10 pm N 9.9 13.0----29.96- 55.9-----
2024-05-28 02:00 pmNNE 12.0 15.0----29.96+0.04 55.9-----
2024-05-28 01:50 pm N 12.0 15.0----29.96- 56.3-----
2024-05-28 01:40 pm N 11.1 15.9----29.95- 56.3-----
2024-05-28 01:30 pm N 11.1 15.0----29.95- 56.8-----
2024-05-28 01:20 pm N 12.0 14.0----29.94- 57.7-----
2024-05-28 01:10 pm N 9.9 15.9----29.94- 58.3-----
2024-05-28 01:00 pm N 13.0 15.9----29.94+0.03 58.6-----
2024-05-28 12:50 pm N 11.1 19.0----29.93- 58.6-----
2024-05-28 12:40 pm N 12.0 18.1----29.93- 59.2-----
2024-05-28 12:30 pm N 13.0 21.0----29.93- 59.4-----
2024-05-28 12:20 pm N 14.0 18.1----29.92- 59.5-----
2024-05-28 12:10 pm N 11.1 22.0----29.93- 59.7-----
2024-05-28 12:00 pmNNW 8.0 15.9----29.93+0.04 59.2-----
2024-05-28 11:50 amNNW 8.9 13.0----29.92- 58.6-----
2024-05-28 11:40 amNNW 8.9 14.0----29.92- 58.1-----
2024-05-28 11:30 am N 8.9 11.1----29.92- 57.9-----
2024-05-28 11:20 amNNW 6.0 11.1----29.92- 57.9-----
2024-05-28 11:10 am N 7.0 11.1----29.92- 57.4-----
2024-05-28 11:00 am N 7.0 11.1----29.92+0.04 57.6-----
2024-05-28 10:50 am N 7.0 12.0----29.91- 57.2-----
2024-05-28 10:40 amNNW 8.0 15.0----29.91- 57.2-----
2024-05-28 10:30 am N 7.0 15.0----29.91- 57.0-----
2024-05-28 10:20 am NW 2.9 9.9----29.91- 56.8-----
2024-05-28 10:10 amNNW 2.9 11.1----29.91- 56.5-----
2024-05-28 10:00 amNNW 4.1 11.1----29.91+0.05 56.3-----
2024-05-28 09:50 amNNW 7.0 9.9----29.90- 56.3-----
2024-05-28 09:40 am NW 5.1 9.9----29.91- 56.5-----
2024-05-28 09:30 amWNW 2.9 8.9----29.90- 56.7-----
2024-05-28 09:20 amNNW 4.1 9.9----29.90- 56.3-----
2024-05-28 09:10 am NW 4.1 8.9----29.90- 55.9-----
2024-05-28 09:00 amNNW 4.1 6.0----29.89+0.05 55.9-----
2024-05-28 08:50 amWNW 4.1 7.0----29.89- 55.6-----
2024-05-28 08:40 am NW 4.1 8.9----29.89- 55.6-----
2024-05-28 08:30 am NW 4.1 8.9----29.89- 55.2-----
2024-05-28 08:20 amWNW 4.1 8.9----29.89- 54.9-----
2024-05-28 08:10 am W 4.1 8.0----29.88- 54.7-----
2024-05-28 08:00 am NW 1.9 7.0----29.88+0.07 54.1-----
2024-05-28 07:50 am W 1.9 6.0----29.87- 54.0-----
2024-05-28 07:40 am W 2.9 5.1----29.87- 53.6-----
2024-05-28 07:30 am W 2.9 6.0----29.87- 53.6-----
2024-05-28 07:20 am W 2.9 8.0----29.87- 53.4-----
2024-05-28 07:10 am W 2.9 7.0----29.86- 53.2-----
2024-05-28 07:00 amWNW 1.9 7.0----29.86+0.07 53.2-----
2024-05-28 06:50 am W 1.9 7.0----29.85- 53.1-----
2024-05-28 06:40 am W 1.9 6.0----29.85- 52.7-----
2024-05-28 06:30 amWNW 1.9 5.1----29.84- 52.5-----
2024-05-28 06:20 amWNW 1.0 6.0----29.84- 52.7-----
2024-05-28 06:10 amWNW 2.9 5.1----29.84- 53.2-----
2024-05-28 06:00 amWNW 4.1 6.0----29.84+0.06 53.2-----
2024-05-28 05:50 amWNW 1.9 5.1----29.83- 53.2-----
2024-05-28 05:40 am W 1.9 6.0----29.83- 53.1-----
2024-05-28 05:30 am W 1.9 5.1----29.82- 53.4-----
2024-05-28 05:20 amWNW 2.9 7.0----29.82- 53.1-----
2024-05-28 05:10 am W 1.0 7.0----29.82- 52.9-----
2024-05-28 05:00 am W 1.9 7.0----29.81+0.05 53.1-----
2024-05-28 04:50 amWNW 1.9 6.0----29.81- 53.1-----